Regional Weather Roundup
Issued by NWS

Home | Current Version | Previous Version | Text Only | Print | Product List | Glossary On
Versions: 1 2 3 4 5 6 7 8 9 10 11 12 13 14 15 16 17
000
ASUS42 KTBW 241017
RWRFL
FLORIDA REGIONAL WEATHER ROUNDUP
NATIONAL WEATHER SERVICE TAMPA BAY RUSKIN FL
500 AM EST WED JAN 24 2018

NOTE: "FAIR" INDICATES FEW OR NO CLOUDS BELOW 12,000 FEET WITH NO
SIGNIFICANT WEATHER AND/OR OBSTRUCTIONS TO VISIBILITY.

FLZ001>010-012>015-112-114-115-241100-
PANHANDLE FLORIDA

CITY           SKY/WX    TMP DP  RH WIND       PRES   REMARKS
PENSACOLA      FAIR      43  33  68 N7        30.27R WCI  39
PENSACOLA NAS  FAIR      42  32  67 N3        30.27R
MILTON NAS     FAIR      39  32  76 N5        30.26R WCI  36
CRESTVIEW      FAIR      41  32  70 N6        30.25R WCI  37
DUKE FIELD     MOCLDY    39  32  75 N5        30.24R WCI  36
VALPARAISO     PTCLDY    40  32  74 NW6       30.24R WCI  35
MARY ESTHER    FAIR      42  33  70 N7        30.24R WCI  38
PANAMA CITY    FAIR      38  34  85 CALM      30.22R
TYNDALL AFB    FAIR      39  35  86 N3        30.23R
APALACHICOLA   FAIR      45  35  68 N7        30.20S WCI  41

STATION/POSITION SKY/WX   TEMP    WIND        PRES    WAVE   SWELL
                          AIR SEA DIR/SP/G            HT/PER HT/PER
                          (F)     (DEG/KT/KT) (MB)    (FT/S) (FT/S)
29.2N   88.2W              56 67   20/ 14/ 17 1025.2
28.8N   86.0W              59 68   20/ 17/ 21 1022.4R   4/ 5
PANAMA CITY BEAC           43 56  350/  6/  8 1024.0R
TOWER C                    53      40/ 17/ 18 1023.2R

$$
FLZ011-016>038-118-127-128-134-139-239-241100-
NORTH FLORIDA

CITY           SKY/WX    TMP DP  RH WIND       PRES   REMARKS
MARIANNA       FAIR      37  33  85 NW3       30.21R
TALLAHASSEE    FAIR      38  34  85 CALM      30.20S
PERRY          FAIR      39  36  89 CALM      30.19S
LIVE OAK       CLEAR     39  37  93 CALM      30.19F
CROSS CITY     FAIR      36  35  99 N6        30.23F WCI  31
LAKE CITY      FAIR      43  32  65 CALM      30.18S
GAINESVILLE    FAIR      42  35  76 NW5       30.20R WCI  39
WILLISTON        N/A     45  39  81 N3        30.18R
PALATKA        FAIR      45  37  76 N5        30.18R WCI  42
MAYPORT NAS    FAIR      47  37  68 NW5       30.17R WCI  45
JACKSONVILLE   FAIR      41  35  79 CALM      30.17R
JAX NAS        FAIR      48  35  60 NW7       30.18R WCI  45
JAX CECIL      FAIR      36  36 100 CALM      30.18R
FERNANDINA BEA FAIR      46  36  66 NW3       30.16R
ST AUGUSTINE   FAIR      48  35  60 NW7       30.17R WCI  45
PALM COAST     FAIR      49  38  68 N7        30.15S

STATION/POSITION SKY/WX   TEMP    WIND        PRES    WAVE   SWELL
                          AIR SEA DIR/SP/G            HT/PER HT/PER
                          (F)     (DEG/KT/KT) (MB)    (FT/S) (FT/S)
SHELL POINT      NOT AVBL
KEATON BEACH               43     360/  2/  3 1021.8R
CEDAR KEY                  49      10/  6/  9 1021.7R
FERNANDINA                 49 52  300/  2/  4 1022.4R
30.7N   81.3W                 51                N/A     2/ 7
MAYPORT                    48 53  310/  3/  5 1021.5R
31.4N   80.9W              50 50  280/  8/ 10 1020.8F   2/ 8   2/ 8
ST AUGUSTINE               51 53  330/  8/ 10 1021.7R

$$
FLZ040-043>046-052-053-057-058-063-144-241100-
INTERIOR CENTRAL FLORIDA

CITY           SKY/WX    TMP DP  RH WIND       PRES   REMARKS
OCALA          FAIR      42  39  89 CALM      30.18R
LEESBURG       FAIR      52  41  66 N9        30.17R
SANFORD        FAIR      53  43  68 N10       30.14R
ORLANDO EXEC   FAIR      55  42  61 N8        30.14S
ORLANDO INTL   FAIR      52  43  71 N9        30.14S
KISSIMMEE      FAIR      54  45  71 N7        30.16R
WINTER HAVEN   FAIR      52  48  86 N8        30.15R
BARTOW         FAIR      50  46  87 NW5       30.15R
SEBRING        FAIR      55  47  72 N6        30.13S
OKEECHOBEE     FAIR      55  52  88 N7        30.11S

$$
FLZ041-047-054-059-064-141-147-241100-
EAST CENTRAL FLORIDA

CITY           SKY/WX    TMP DP  RH WIND       PRES   REMARKS
DAYTONA BEACH  FAIR      52  43  71 N7        30.14S
DELAND         FAIR      50  43  76 N7        30.14S
JFK SPACE CTR  FAIR      53  50  87 N7        30.12R
CAPE CANAVERAL FAIR      58  48  70 N10       30.11R
PATRICK AFB    FAIR      59  50  72 N14       30.11S
MELBOURNE      FAIR      58  48  69 NW9       30.11S
VERO BEACH     FAIR      59  55  87 N8        30.11R
FT PIERCE      CLOUDY    62  57  83 NW7       30.10R
STUART         MOCLDY    61  61 100 N6        30.10S

STATION/POSITION SKY/WX   TEMP    WIND        PRES    WAVE   SWELL
                          AIR SEA DIR/SP/G            HT/PER HT/PER
                          (F)     (DEG/KT/KT) (MB)    (FT/S) (FT/S)
28.5N   80.2W              67 72  340/ 19/ 23 1019.1R   3/ 5   2/ 8
TRIDENT PIER               58 63  330/ 10/ 12 1021.5R
28.4N   80.5W                 60                N/A     2/ 8
27.5N   80.2W                 73                N/A     2/ 3

$$
FLZ050-056-061-142-242-148-248-149-249-151-251-155-255-
160-260-241100-
WEST CENTRAL FLORIDA

CITY           SKY/WX    TMP DP  RH WIND       PRES   REMARKS
CRYSTAL RIVER  FAIR      41  39  93 CALM      30.17S
INVERNESS      FAIR      46  43  87 N5        30.17F WCI  44
BROOKSVILLE    FAIR      48  41  76 N6        30.16S
CLEARWATER AIR FAIR      52  45  76 CALM      30.16R
ST PETE CLEARW FAIR      55  49  80 N8        30.15R
TAMPA INTL     FAIR      52  48  86 N5        30.16R
TAMPA EXEC     FAIR      46  46 100 N3        30.16R
PLANT CITY     FAIR      52  48  87 N5        30.17R
MACDILL AFB    CLEAR     54  48  82 NE7       30.15R
PETER O KNIGHT FAIR      54  46  76 N7        30.16R
ST PETERSBURG  FAIR      56  49  77 N8        30.14R
SARASOTA         N/A     55  50  83 N8        30.13R
VENICE           N/A     57  48  72 N8        30.13S

STATION/POSITION SKY/WX   TEMP    WIND        PRES    WAVE   SWELL
                          AIR SEA DIR/SP/G            HT/PER HT/PER
                          (F)     (DEG/KT/KT) (MB)    (FT/S) (FT/S)
27.3N   84.2W                 70                N/A     5/ 7
CLEARWATER BEACH           56 58  360/ 11/ 14 1021.0S
MIDDLE TAMPA BAY           57      20/ 11/ 14 1021.0R
VENICE                     57 61   10/  9/ 11 1020.2R

$$
FLZ066-069-070-075>078-162-262-165-265-241100-
SOUTHWEST FLORIDA AND KEYS

CITY           SKY/WX    TMP DP  RH WIND       PRES   REMARKS
PUNTA GORDA    FAIR      56  49  77 N5        30.14S
FT MYERS       MOCLDY    63  53  70 N10       30.11R
SOUTHWEST INTL CLOUDY    64  56  75 N10G17    30.11R
NAPLES         CLOUDY    67  57  70 N5        30.10R
MARCO ISLAND   CLOUDY    67  61  81 N7        30.11R
IMMOKALEE      CLOUDY    64  61  88 CALM      30.11S
MARATHON       FOG       71  68  90 N6        30.07R VSB 1/4
KEY WEST NAS   CLOUDY    71  32  23 NE10      30.07S
KEY WEST INTL  CLOUDY    67  32  27 N5        30.08S

STATION/POSITION SKY/WX   TEMP    WIND        PRES    WAVE   SWELL
                          AIR SEA DIR/SP/G            HT/PER HT/PER
                          (F)     (DEG/KT/KT) (MB)    (FT/S) (FT/S)
NAPLES                        65  360/  5/  7 1019.2R
DRY TORTUGAS               70      30/ 13/ 15 1018.6R
SAND KEY                   69                 1018.9R
LONG KEY                   70 69  220/  6/  6 1018.0S
MOLASSES REEF              72 74   20/  8/  9 1018.4

$$
FLZ067-068-071>074-168-172>174-241100-
SOUTHEAST FLORIDA

CITY           SKY/WX    TMP DP  RH WIND       PRES   REMARKS
W PALM BEACH   MOCLDY    68  66  93 N8        30.09R
FT LAUDER-EXEC FAIR      69  69 100 N5        30.08R
FT LAUDERDALE  FAIR      69  69 100 N3        30.07R
POMPANO BEACH  MOCLDY    71  70  96 NW5       30.08R
PEMBROKE PINES FAIR      70  68  93 N6        30.09S
OPA LOCKA      CLOUDY    70  69  97 N6        30.09R
MIAMI          MOCLDY    72  70  93 NW3       30.08S FOG
WEST KENDALL   FAIR      69  67  93 N7        30.08R
HOMESTEAD      FAIR      70 N/A N/A NW6       30.07S

STATION/POSITION SKY/WX   TEMP    WIND        PRES    WAVE   SWELL
                          AIR SEA DIR/SP/G            HT/PER HT/PER
                          (F)     (DEG/KT/KT) (MB)    (FT/S) (FT/S)
PORT EVERGLADES            70     320/  5/  7 1018.3
VIRGINIA KEY               71 72  320/  2/  5 1018.2R
LAKE WORTH                 69 74  340/ 10/ 12 1019.6R
FOWEY ROCKS                72 72  340/  9/ 10 1019.0R
SETTLEMENT POINT           72     310/  2/  2 1018.3F

$$





USA.gov is the U.S. government's official web portal to all federal, state and local government web resources and services.